Weather reports worldwide

Advertisment
Holbeach, United Kingdom (3469): temperature & dewpoint: 09.08.2020 20:00:00 - 15.08.2020 20:00:00 (BST)Holbeach, United Kingdom (3469): temperature -20cm & temperature -100cm: 09.08.2020 20:00:00 - 15.08.2020 20:00:00 (BST)Holbeach, United Kingdom (3469): wind speed & gusts: 09.08.2020 20:00:00 - 15.08.2020 20:00:00 (BST)Holbeach, United Kingdom (3469): wind direction: 09.08.2020 20:00:00 - 15.08.2020 20:00:00 (BST)Holbeach, United Kingdom (3469): reduced air pressure: 09.08.2020 20:00:00 - 15.08.2020 20:00:00 (BST)Holbeach, United Kingdom (3469): visibility: 09.08.2020 20:00:00 - 15.08.2020 20:00:00 (BST)Holbeach, United Kingdom (3469): precipitation: 09.08.2020 20:00:00 - 15.08.2020 20:00:00 (BST)
Date & Time tt [°C] td [°C] tt -20cm [°C] tt -100cm [°C] ff [km/h] ff [kn] fx [km/h] fx [kn] dd ppp [hPa] vv [km] rr [mm]
15.08.2020 20:00:00 - - - - - - - - - - - -
15.08.2020 19:00:00 17,3 16,0 - - 29 16 - - NE 1015,3 12 0,0
15.08.2020 18:00:00 17,6 16,0 - - 28 15 - - NE 1015,3 14 0,0
15.08.2020 17:00:00 17,8 16,1 - - 28 15 - - NE 1015,5 11 0,0
15.08.2020 16:00:00 18,0 16,0 - - 29 16 - - NE 1015,8 13 0,0
15.08.2020 15:00:00 18,0 16,3 - - 28 15 - - NE 1016,1 18 0,0
15.08.2020 14:00:00 18,1 16,5 - - 29 16 - - NE 1016,4 15 0,0
15.08.2020 13:00:00 18,6 16,2 - - 28 15 - - NE 1016,5 13 0,0
15.08.2020 12:00:00 18,8 16,1 - - 28 15 - - NE 1016,5 17 0,0
15.08.2020 11:00:00 18,0 15,7 - - 26 14 - - NE 1016,6 18 0,0
15.08.2020 10:00:00 18,1 15,5 18,2 16,7 26 14 - - NE 1016,5 24 0,0
15.08.2020 09:00:00 17,6 14,5 - - 24 13 - - NE 1016,5 30 0,0
15.08.2020 08:00:00 17,4 14,3 - - 24 13 - - NE 1016,4 40 0,0
15.08.2020 07:00:00 16,4 13,4 - - 26 14 - - NE 1016,2 25 0,0
15.08.2020 06:00:00 16,3 13,8 - - 22 12 - - NE 1015,9 30 0,0
15.08.2020 05:00:00 16,2 14,3 - - 28 15 - - NNE 1015,6 21 0,0
15.08.2020 04:00:00 16,2 14,5 - - 24 13 - - NNE 1015,8 16 0,0
15.08.2020 03:00:00 16,0 14,3 - - 26 14 - - NNE 1016,0 17 0,0
15.08.2020 02:00:00 15,9 14,2 - - 26 14 - - NNE 1016,2 15 0,0
15.08.2020 01:00:00 15,9 14,3 - - 28 15 - - NNE 1016,4 20 0,0
15.08.2020 00:00:00 16,1 14,4 - - 28 15 - - NNE 1016,4 17 0,0
14.08.2020 23:00:00 16,3 15,0 - - 26 14 - - NNE 1016,3 15 0,0
14.08.2020 22:00:00 16,5 15,5 - - 28 15 - - NNE 1016,0 11 0,0
14.08.2020 21:00:00 16,2 15,5 - - 31 17 - - NNE 1015,5 3,9 0,0
14.08.2020 20:00:00 16,4 15,2 - - 29 16 - - NNE 1015,2 8 0,0
14.08.2020 19:00:00 16,9 15,3 - - 34 18 - - NNE 1014,7 12 0,0
14.08.2020 18:00:00 17,4 15,5 - - 31 17 - - NNE 1014,5 16 0,0
14.08.2020 17:00:00 17,9 15,6 - - 34 18 - - NNE 1014,3 21 0,0
14.08.2020 16:00:00 18,4 15,8 - - 26 14 - - NNE 1014,5 27 0,0
14.08.2020 15:00:00 19,1 15,8 - - 31 17 - - NNE 1014,1 27 0,0
14.08.2020 14:00:00 20,4 16,5 - - 28 15 - - NNE 1014,4 28 0,0
14.08.2020 13:00:00 20,3 16,3 - - 29 16 - - NNE 1014,4 45 0,0
14.08.2020 12:00:00 18,9 16,1 - - 28 15 - - NNE 1014,2 26 0,0
14.08.2020 11:00:00 18,3 16,3 - - 31 17 - - NNE 1013,9 23 0,0
14.08.2020 10:00:00 17,0 15,9 18,7 16,5 28 15 - - NNE 1013,8 15 0,0
14.08.2020 09:00:00 16,4 15,4 - - 34 18 46 25 NNE 1013,8 14 0,0
14.08.2020 08:00:00 16,4 15,4 - - 28 15 - - N 1013,7 15 0,0
14.08.2020 07:00:00 16,2 15,3 - - 26 14 - - N 1013,4 12 0,0
14.08.2020 06:00:00 16,0 15,3 - - 29 16 - - N 1013,4 10 0,0
14.08.2020 05:00:00 16,1 15,4 - - 26 14 - - N 1013,2 9 0,0
14.08.2020 04:00:00 16,1 15,6 - - 29 16 - - N 1013,3 7 0,0
14.08.2020 03:00:00 15,9 15,6 - - 28 15 - - N 1013,5 4,8 0,0
14.08.2020 02:00:00 16,0 15,7 - - 28 15 - - N 1014,2 3,0 0,0
14.08.2020 01:00:00 16,3 15,9 - - 29 16 - - NNE 1014,2 3,7 0,0
14.08.2020 00:00:00 16,6 16,0 - - 24 13 - - NNE 1014,5 5 0,0
13.08.2020 23:00:00 16,7 16,0 - - 26 14 - - N 1014,2 8 0,0
13.08.2020 22:00:00 16,7 15,9 - - 29 16 - - NNE 1014,2 8 0,0
13.08.2020 21:00:00 17,0 16,0 - - 31 17 - - NNE 1013,9 10 0,0
13.08.2020 20:00:00 17,4 16,1 - - 28 15 - - NNE 1014,2 10 0,0
13.08.2020 19:00:00 17,9 16,3 - - 26 14 - - NNE 1013,8 12 0,0
13.08.2020 18:00:00 18,4 16,4 - - 26 14 - - NNE 1013,7 13 0,0
13.08.2020 17:00:00 19,1 16,4 - - 29 16 - - NNE 1013,7 18 0,0
13.08.2020 16:00:00 20,6 17,1 - - 29 16 - - NNE 1013,9 22 0,0
13.08.2020 15:00:00 20,5 17,4 - - 28 15 - - N 1014,2 16 0,0
13.08.2020 14:00:00 20,6 17,4 - - 24 13 - - N 1014,5 17 0,0
13.08.2020 13:00:00 19,4 17,0 - - 18 10 - - N 1014,9 15 0,0
13.08.2020 12:00:00 19,2 16,9 - - 26 14 - - NNE 1014,5 20 0,0
13.08.2020 11:00:00 18,2 16,7 - - 29 16 - - NNE 1014,0 19 0,0
13.08.2020 10:00:00 17,8 16,8 19,0 16,5 29 16 - - NNE 1013,7 16 0,0
13.08.2020 09:00:00 17,1 16,7 - - 28 15 - - NNE 1013,8 9 0,0
13.08.2020 08:00:00 16,6 16,4 - - 24 13 - - NNE 1013,8 3,0 0,0
13.08.2020 07:00:00 16,6 16,4 - - 26 14 - - NNE 1013,9 1,5 0,0
13.08.2020 06:00:00 16,6 16,4 - - 26 14 - - NNE 1013,5 1,1 0,0
13.08.2020 05:00:00 16,8 16,6 - - 18 10 - - NNE 1013,9 0,5 0,0
13.08.2020 04:00:00 16,7 16,4 - - 16 9 - - NNE 1014,0 0,4 0,0
13.08.2020 03:00:00 16,9 16,5 - - 18 10 - - N 1013,6 2,9 0,0
13.08.2020 02:00:00 17,0 16,7 - - 13 7 - - N 1014,1 1,4 0,0
13.08.2020 01:00:00 17,6 17,2 - - 16 9 - - NE 1014,0 0,7 0,0
13.08.2020 00:00:00 17,9 17,3 - - 18 10 - - NNE 1014,3 4,3 0,0
12.08.2020 23:00:00 18,3 17,6 - - 21 11 - - NE 1014,8 5 0,0
12.08.2020 22:00:00 18,4 17,6 - - 21 11 - - ENE 1014,8 7 0,0
12.08.2020 21:00:00 18,8 17,7 - - 24 13 - - NE 1014,2 7 0,0
12.08.2020 20:00:00 19,5 17,9 - - 24 13 - - ENE 1013,8 9 0,0
12.08.2020 19:00:00 20,2 18,0 - - 28 15 - - NE 1013,2 10 0,0
12.08.2020 18:00:00 21,3 18,5 - - 34 18 46 25 ENE 1013,3 12 0,0
12.08.2020 17:00:00 22,5 18,8 - - 34 18 - - ENE 1013,4 13 0,0
12.08.2020 16:00:00 23,5 18,7 - - 34 18 - - NE 1013,9 18 0,0
12.08.2020 15:00:00 24,7 18,8 - - 29 16 - - ENE 1013,9 24 0,0
12.08.2020 14:00:00 24,3 18,9 - - 28 15 - - NE 1014,3 17 0,0
12.08.2020 13:00:00 23,8 19,1 - - 29 16 - - NE 1014,7 10 0,0
12.08.2020 12:00:00 24,2 19,6 - - 21 11 - - NE 1015,0 10 0,0
12.08.2020 11:00:00 23,8 19,9 - - 15 8 - - ENE 1014,8 10 0,0
12.08.2020 10:00:00 23,1 19,6 18,7 16,4 9 5 - - NE 1014,8 8 0,0
12.08.2020 09:00:00 21,4 19,1 - - 16 9 - - ENE 1014,5 10 0,0
12.08.2020 08:00:00 20,3 19,3 - - 11 6 - - E 1014,2 4,7 0,0
12.08.2020 07:00:00 18,7 18,4 - - 11 6 - - ENE 1014,2 2,5 0,0
12.08.2020 06:00:00 17,2 16,9 - - 15 8 - - NE 1014,3 2,0 0,0
12.08.2020 05:00:00 17,0 16,4 - - 9 5 - - N 1014,5 1,9 0,0
12.08.2020 04:00:00 18,0 17,8 - - 15 8 - - NNE 1014,7 2,1 0,0
12.08.2020 03:00:00 17,4 17,1 - - 9 5 - - ENE 1014,5 1,2 0,0
12.08.2020 02:00:00 17,5 17,0 - - 9 5 - - NE 1014,1 0,8 0,0
12.08.2020 01:00:00 18,1 17,4 - - 8 4 - - ENE 1014,0 2,4 0,0
12.08.2020 00:00:00 18,6 17,9 - - 11 6 - - NE 1014,7 3,0 0,0
11.08.2020 23:00:00 18,8 18,0 - - 15 8 - - NE 1015,0 4,0 0,0
11.08.2020 22:00:00 19,3 18,2 - - 15 8 - - NE 1014,8 5 0,0
11.08.2020 21:00:00 19,6 18,4 - - 16 9 - - ENE 1014,7 6 0,0
11.08.2020 20:00:00 20,2 18,2 - - 21 11 - - NE 1014,3 8 0,0
11.08.2020 19:00:00 21,4 18,4 - - 24 13 - - NE 1014,0 9 0,0
11.08.2020 18:00:00 22,9 18,8 - - 22 12 - - NE 1014,1 13 0,0
11.08.2020 17:00:00 23,5 19,1 - - 24 13 - - ENE 1014,4 13 0,0
11.08.2020 16:00:00 23,8 19,2 - - 21 11 - - ENE 1014,9 13 0,0
11.08.2020 15:00:00 22,5 18,7 - - 13 7 - - NE 1015,3 10 0,0
11.08.2020 14:00:00 23,0 18,2 - - 16 9 - - NE 1015,7 13 0,0
11.08.2020 13:00:00 23,1 18,8 - - 22 12 - - NE 1015,8 16 0,0
11.08.2020 12:00:00 21,9 18,2 - - 28 15 - - NE 1015,9 21 0,0
11.08.2020 11:00:00 22,6 18,8 - - 21 11 - - NE 1016,1 14 0,0
11.08.2020 10:00:00 21,9 18,7 18,5 16,2 16 9 - - NNE 1016,0 18 0,0
11.08.2020 09:00:00 20,0 18,5 - - 16 9 - - NNE 1016,0 9 0,0
11.08.2020 08:00:00 18,0 17,3 - - 21 11 - - NNE 1015,8 5 0,0
11.08.2020 07:00:00 17,4 16,8 - - 15 8 - - N 1015,6 5 0,0
11.08.2020 06:00:00 17,1 16,4 - - 15 8 - - N 1015,6 3,8 0,0
11.08.2020 05:00:00 17,5 16,9 - - 16 9 - - NE 1015,1 3,1 0,0
11.08.2020 04:00:00 18,2 17,5 - - 16 9 - - NE 1015,2 4,3 0,0
11.08.2020 03:00:00 18,2 17,5 - - 18 10 - - ENE 1015,1 4,2 0,0
11.08.2020 02:00:00 18,1 17,6 - - 16 9 - - NE 1015,3 5 0,0
11.08.2020 01:00:00 18,3 17,7 - - 16 9 - - ENE 1015,4 5 0,0
11.08.2020 00:00:00 18,9 18,0 - - 15 8 - - ENE 1015,9 6 0,0
10.08.2020 23:00:00 19,0 18,3 - - 21 11 - - ENE 1015,7 7 0,0
10.08.2020 22:00:00 19,2 18,2 - - 24 13 - - NE 1015,5 8 0,0
10.08.2020 21:00:00 19,5 18,3 - - 26 14 - - ENE 1014,8 11 0,0
10.08.2020 20:00:00 20,2 18,4 - - 26 14 - - ENE 1014,0 14 0,0
10.08.2020 19:00:00 21,1 18,6 - - 29 16 - - ENE 1014,0 16 0,0
10.08.2020 18:00:00 21,6 18,3 - - 35 19 46 25 ENE 1014,0 15 0,0
10.08.2020 17:00:00 22,0 18,2 - - 31 17 - - NE 1014,6 16 0,0
10.08.2020 16:00:00 21,8 17,8 - - 35 19 - - NE 1015,0 17 0,0
10.08.2020 15:00:00 21,9 18,4 - - 31 17 - - NE 1015,3 18 0,0
10.08.2020 14:00:00 22,0 17,9 - - 31 17 - - NE 1015,5 17 0,0
10.08.2020 13:00:00 22,1 18,1 - - 31 17 - - NE 1015,5 16 0,0
10.08.2020 12:00:00 21,5 17,1 - - 26 14 - - NE 1016,1 22 0,0
10.08.2020 11:00:00 21,4 17,2 - - 26 14 - - NE 1016,2 19 0,0
10.08.2020 10:00:00 20,6 16,8 18,2 16,2 28 15 - - NE 1016,1 17 0,0
10.08.2020 09:00:00 19,5 17,2 - - 22 12 - - NE 1016,1 17 0,0
10.08.2020 08:00:00 18,1 16,6 - - 22 12 - - NE 1016,2 13 0,0
10.08.2020 07:00:00 17,0 16,7 - - 16 9 - - NNE 1016,1 9 0,0
10.08.2020 06:00:00 15,7 15,3 - - 18 10 - - NNE 1016,3 7 0,0
10.08.2020 05:00:00 15,7 15,3 - - 15 8 - - NNE 1016,7 8 0,0
10.08.2020 04:00:00 15,9 15,4 - - 16 9 - - NNE 1016,8 7 0,0
10.08.2020 03:00:00 16,5 15,9 - - 16 9 - - NNE 1017,0 7 0,0
10.08.2020 02:00:00 17,0 16,3 - - 16 9 - - NE 1017,3 8 0,0
10.08.2020 01:00:00 17,2 16,6 - - 22 12 - - NE 1017,4 7 0,0
10.08.2020 00:00:00 17,2 16,5 - - 16 9 - - NE 1017,9 7 0,0
09.08.2020 23:00:00 17,4 16,5 - - 22 12 - - ENE 1018,1 7 0,0
09.08.2020 22:00:00 17,6 16,5 - - 26 14 - - ENE 1018,2 8 0,0
09.08.2020 21:00:00 17,6 16,4 - - 29 16 - - NE 1017,9 8 0,0
09.08.2020 20:00:00 18,0 16,5 - - 26 14 - - NE 1018,0 9 0,0

tt = temperature
td = dewpoint
tt -20cm = temperature -20cm
tt -100cm = temperature -100cm
ff = wind speed
fx = gusts
dd = wind direction
ppp = reduced air pressure
vv = visibility
rr = precipitation

Next stations